Flag for Canada Weather past 2 weeks in Longueuil, Quebec, Canada

Now
65 °F

Mild.


Feels Like: 65 °F
Forecast: 61 / 71 °F
Wind: 3 mph from West

Location: Mc Tavish

Current Time: Aug 5, 2015 at 9:37:51 AM

Latest Report: Aug 5, 2015 at 9:00 AM


Visibility: N/A

Pressure: 29.83 "Hg

Humidity: 82%

Dew point: 60 °F

Location of LongueuilLocation

Historic Weather in Longueuil — Graph

°F

Longueuil temperature yesterday

Maximum temperature yesterday: 77 °F (at 2:00 PM)
Minimum temperature yesterday: 63 °F (at 11:00 PM)
Average temperature yesterday: 70 °F

Past Weeks' High & Low Weather Summary

 TemperatureHumidityPressure
High89 °F (Jul 29, 3:00 PM)99% (Jul 25, 7:00 AM)30.01 "Hg (Jul 25, 7:00 AM)
Low56 °F (Jul 25, 7:00 AM)41% (Aug 2, 3:00 PM)29.51 "Hg (Jul 21, 3:00 PM)
Average71 °F71%29.80 "Hg
* Reported Jul 21 8:00 AM — Aug 5 8:00 AM, Longueuil, Weather by CustomWeather, © 2015

Note: Actual official high and low records may vary slightly from our data, if they occured in-between our weather recording intervals... More about our weather records

Advertising

Longueuil weather history for previous 24 hours

 ConditionsComfort  
Time TempWeatherWind HumidityBarometerVisibility
8:00 AM
Wed, Aug 5
64 °FMild.3 mph85%29.82 "HgN/A
7:00 AM63 °FMild.5 mph89%29.82 "HgN/A
6:00 AM60 °FCool.3 mph98%29.81 "HgN/A
5:00 AM62 °FCool.1 mph89%29.81 "HgN/A
4:00 AM63 °FMild.2 mph89%29.82 "HgN/A
3:00 AM63 °FMild.2 mph89%29.82 "HgN/A
2:00 AM64 °FMild.2 mph88%29.82 "HgN/A
1:00 AM64 °FMild.3 mph91%29.82 "HgN/A
12:00 AM64 °FMild.1 mph94%29.83 "HgN/A
11:00 PM
Tue, Aug 4
63 °FMild.1 mph90%29.83 "HgN/A
10:00 PM68 °FMild.1 mph67%29.81 "HgN/A
9:00 PM70 °FMild.1 mph58%29.81 "HgN/A
8:00 PM72 °FMild.2 mph51%29.80 "HgN/A
7:00 PM74 °FMild.3 mph48%29.79 "HgN/A
6:00 PM75 °FMild.2 mph46%29.78 "HgN/A
5:00 PM75 °FMild.3 mph47%29.77 "HgN/A
4:00 PM76 °FMild.5 mph48%29.77 "HgN/A
3:00 PM76 °FMild.5 mph46%29.77 "HgN/A
2:00 PM77 °FMild.6 mph49%29.77 "HgN/A
1:00 PM75 °FMild.8 mph51%29.77 "HgN/A
12:00 PM75 °FMild.6 mph53%29.78 "HgN/A
11:00 AM73 °FMild.3 mph57%29.78 "HgN/A
10:00 AM70 °FMild.2 mph72%29.78 "HgN/A
9:00 AM69 °FMild.2 mph72%29.78 "HgN/A
Weather by CustomWeather, © 2015

See weather overviewHow to use our weather pages